Location: Laas
(43.4693°N, 0.3073°E)
Time: 17:09:23
(UTC+00:00)

Daily predictions for brighter satellites

Satellite Brightness Start Highest point End
(mag) Time Altitude Azimuth Time Altitude Azimuth Time Altitude Azimuth
Cosmos 1356 Rocket 4.0 17:23:13 10° SSW 17:27:27 65° WNW 17:31:44 10° N
CZ-4 R/B 2.9 17:25:33 10° ESE 17:27:56 16° ENE 17:30:19 10° NNE
H-2A R/B 4.3 17:26:22 10° SSW 17:30:31 40° W 17:34:46 10° NNW
FALCON 9 DEB 4.0 17:28:51 10° SSW 17:31:44 30° SE 17:34:36 10° ENE
Aureole 3 4.4 17:30:09 10° SE 17:32:14 16° E 17:34:12 10° NE
GRACE-FO 1 4.5 17:28:53 10° N 17:32:30 78° E 17:36:06 10° S
GRACE-FO 2 4.5 17:29:16 10° N 17:32:53 79° E 17:36:29 10° S
COSMO-SKYMED 1 3.3 17:29:17 10° NNE 17:33:12 32° E 17:37:05 10° SSE
Cosmos 1400 Rocket 4.1 17:32:01 10° SE 17:35:13 22° E 17:38:24 10° NE
SeaSat 1 4.2 17:32:55 10° ENE 17:35:24 14° NE 17:37:54 10° NNE
Okean O Rocket 2.0 17:33:34 10° S 17:37:56 69° WSW 17:42:17 10° NNW
H-2A R/B 3.5 17:34:52 10° N 17:38:46 39° WNW 17:42:35 10° SW
USA 215 4.5 17:33:57 10° ENE 17:39:18 28° N 17:44:37 10° NW
CZ-4B R/B 3.9 17:36:43 10° S 17:42:17 62° WSW 17:47:48 10° NNW
CZ-2C R/B 4.2 17:37:47 10° ESE 17:42:35 28° ENE 17:47:20 10° N
ATLAS 5 CENTAUR R/B 4.1 17:41:54 10° WNW 17:44:22 15° NNW 17:47:01 10° N
Cosmos 1825 Rocket 3.5 17:41:19 10° N 17:45:47 71° E 17:50:10 10° SSE
GENESIS II 4.2 17:42:33 10° SSW 17:46:33 72° ESE 17:50:35 10° NE
COSMOS 2487 3.0 17:43:13 10° NNW 17:46:37 59° WSW 17:49:59 10° S
Cosmos 1110 Rocket 4.0 17:41:26 10° SSW 17:46:41 79° ESE 17:51:56 10° NNE
Milstar 3 4.4 17:42:42 10° SW 17:47:49 21° S 17:52:41 10° ESE
YAOGAN 1 3.6 17:44:53 10° ESE 17:48:22 24° ENE 17:51:53 10° NNE
Cosmos 1302 Rocket 4.5 17:44:38 10° S 17:49:28 38° ESE 17:54:20 10° NE
Cosmos 1689 Rocket 2.5 17:47:06 10° NNE 17:49:49 37° E 17:52:31 10° S
Meteor 2-21 Rocket 4.4 17:48:46 10° N 17:54:58 73° E 18:01:04 10° SSE
Cosmos 2227 Rocket 2.9 17:53:55 10° N 17:58:57 32° NE 18:03:35 12° ESE
SL-4 R/B 3.4 17:56:12 10° WNW 17:59:06 23° N 18:01:41 12° NE
Cosmos 1726 Rocket 3.4 17:56:14 10° S 18:00:32 74° E 18:04:55 10° NNE
Cosmos 1656 4.2 17:55:51 10° S 18:00:49 35° ESE 18:05:53 10° NE
Cosmos 1892 3.8 17:59:35 10° NNE 18:02:49 24° ENE 18:05:38 12° SE
Cosmos 1758 Rocket 4.4 17:59:12 10° NNW 18:03:32 55° W 18:07:47 10° S
Cosmos 1346 Rocket 4.1 18:02:53 10° NNE 18:05:52 20° ENE 18:06:08 20° ENE
BREEZE-M R/B 4.1 18:03:18 10° WNW 18:06:53 41° N 18:11:38 17° ENE
Okean-O 2.8 18:03:32 10° SE 18:07:47 49° ENE 18:12:04 10° N
CSL-04 Rocket 4.4 18:03:21 10° SE 18:08:12 32° ENE 18:13:03 10° N
CZ-2D R/B 3.2 18:04:38 10° SSE 18:08:23 57° ENE 18:12:08 10° N
MOS 1 Rocket 4.2 18:06:20 10° NE 18:10:20 28° E 18:14:32 10° SSE
Aureole 3 Rocket 3.0 18:06:50 10° S 18:10:24 55° E 18:15:12 10° NNE
Cosmos 1300 2.8 18:09:42 10° SSW 18:13:30 75° W 18:17:19 10° N
Cosmos 2228 3.7 18:11:09 10° SSW 18:15:19 55° W 18:19:31 10° N
Cosmos 1606 Rocket 4.1 18:11:05 10° SSW 18:15:23 60° W 18:19:45 10° N
GEOS 3 Rocket 4.1 18:12:44 18° ESE 18:16:26 44° NE 18:21:31 10° NNW
Cosmos 1697 Rocket 3.6 18:12:27 10° SSE 18:16:56 25° ESE 18:18:39 22° ENE
Cosmos 44 3.2 18:15:07 10° SW 18:19:34 79° NW 18:24:21 10° NNE
SL-08 R/B 4.5 18:14:20 10° N 18:20:26 57° ENE 18:26:26 10° SSE
Cosmos 1745 Rocket 4.3 18:14:30 10° N 18:20:27 42° ENE 18:26:24 10° SE
SKYMED 2 3.7 18:17:02 10° N 18:21:23 77° WNW 18:25:42 10° SSW
Lacrosse 5 3.9 18:20:07 10° NW 18:23:36 18° N 18:26:52 11° NNE
IRS-P2 Rocket 4.5 18:20:22 10° SSE 18:25:34 80° ENE 18:30:52 10° NNW
Cosmos 1408 4.0 18:24:03 10° NNE 18:25:49 22° NE 18:25:49 22° NE
H-2A R/B 2.4 18:22:37 10° SE 18:27:42 45° ENE 18:32:53 10° N
Meteor 2-15 4.5 18:25:06 10° SSE 18:31:03 55° E 18:37:01 10° NNE
Cosmos 1992 Rocket 4.5 18:26:22 10° SSE 18:31:03 35° ESE 18:32:52 27° ENE
CZ-4B R/B 4.2 18:28:48 10° NNW 18:31:09 19° WNW 18:33:27 10° WSW
USA 307 4.2 18:31:02 10° NW 18:34:41 26° NNE 18:35:30 25° NE
FALCON 9 DEB 3.2 18:34:54 10° WSW 18:38:06 62° NNW 18:38:42 49° NNE
Cosmos 1980 Rocket 4.3 18:34:46 10° SE 18:34:48 10° SE 18:34:48 10° SE
Cosmos 2297 Rocket 2.1 18:33:45 10° NNW 18:39:26 75° ENE 18:44:22 14° SSE
USA 308 4.1 18:35:50 10° NW 18:39:31 27° NNE 18:40:06 26° NNE
Helios 1A Rocket 3.3 18:35:55 10° S 18:40:00 64° WSW 18:44:06 10° NNW
Cosmos 1939 Rocket 4.3 18:39:00 10° SSW 18:42:45 38° W 18:46:28 10° NNW
In-Cosmos 22 Rocket 4.0 18:37:22 10° N 18:42:45 89° W 18:48:12 10° S
Cosmos 1340 2.8 18:39:53 10° NNW 18:43:40 73° W 18:47:25 10° S
Cosmos 2058 Rocket 3.6 18:39:52 10° SSW 18:44:17 61° W 18:48:46 10° N
FALCON 9 DEB 3.5 18:41:26 10° WSW 18:44:34 51° NNW 18:44:54 48° N
BREEZE-M R/B 4.0 18:38:30 10° WNW 18:44:40 37° N 18:45:14 34° NNE
Geosat 3.9 18:40:17 10° NNE 18:45:21 82° ESE 18:50:22 10° SSW
CSL-04 Debris 4.1 18:40:35 10° SSE 18:45:57 69° ENE 18:51:24 10° N
Cosmos 220 Rocket 4.2 18:44:26 10° S 18:48:14 49° SE 18:48:14 49° SE
Cosmos 1709 Rocket 4.4 18:44:30 10° N 18:50:30 41° ENE 18:51:44 37° ESE
FALCON 9 DEB 3.7 18:50:51 10° WSW 18:53:58 46° NNW 18:53:58 46° NNW
Cosmos 2058 2.7 18:57:39 10° N 19:01:46 86° E 19:01:47 86° E
CZ-4 R/B 2.5 18:58:55 10° S 19:02:39 42° W 19:06:21 10° NNW
Cosmos 883 Rocket 4.4 18:59:39 10° S 19:05:40 57° E 19:11:40 10° NNE
Cosmos 2219 3.6 19:00:49 10° NNW 19:06:31 64° WSW 19:11:45 12° S
BREEZE-M TANK 2.4 19:01:58 10° WNW 19:07:52 84° N 19:07:55 84° NE
S3M 3.9 19:01:50 10° S 19:07:57 86° W 19:14:08 10° N
SeaSat 1 2.3 19:11:59 73° E 19:12:09 75° ENE 19:17:06 10° NNW
Cosmos 2082 3.6 19:11:00 10° NNW 19:16:44 69° ENE 19:16:56 69° ENE
NOSS 3-3 (A) 3.7 19:12:27 10° SSW 19:18:10 77° SE 19:19:18 59° ENE
NOSS 3-3 (C) 3.7 19:12:32 10° SSW 19:18:18 77° ESE 19:19:26 60° ENE
USA 215 3.6 19:20:27 43° NE 19:21:19 45° NNE 19:27:29 10° NW
CZ-2C R/B 4.2 19:16:35 10° S 19:22:10 48° W 19:27:41 10° NNW
YAOGAN 1 4.3 19:20:26 10° SSW 19:24:18 32° W 19:28:13 10° NNW
Cosmos 968 Rocket 4.0 19:21:07 10° NNW 19:26:14 58° WSW 19:28:01 38° SSW
Atlas Centaur 2 4.0 19:19:28 10° SW 19:26:34 30° S 19:27:34 29° SSE
Cosmos 2369 3.6 19:20:54 10° SSW 19:26:15 76° SSE 19:26:15 76° SSE
USA 305 4.4 19:22:32 10° NW 19:25:08 31° NNW 19:25:08 31° NNW
Meteor 2-10 Rocket 4.3 19:26:47 10° SSW 19:31:59 50° WNW 19:37:02 10° N
ATLAS 2AS CENTAUR R/B 3.6 19:25:22 10° NNW 19:31:55 35° NNE 19:31:55 35° NNE
ARGOS 3.4 19:32:00 46° SSW 19:33:33 68° WSW 19:38:59 10° NNW
SL-4 R/B 4.4 19:36:12 10° NW 19:37:16 17° NW 19:37:16 17° NW
Cosmos 2227 Rocket 3.3 19:37:48 10° NW 19:43:06 41° WSW 19:45:30 27° SSW
Cosmos 2263 Rocket 3.9 19:47:27 10° NNW 19:49:40 22° N 19:49:40 22° N
Cosmos 1697 Rocket 3.5 19:55:10 10° SW 20:00:30 48° WNW 20:00:30 48° WNW
H-2A R/B 4.1 20:02:50 10° SSW 20:07:16 26° W 20:11:47 10° NW
Lacrosse 5 4.2 20:04:22 10° NNW 20:06:03 16° NNW 20:06:03 16° NNW
CZ-4C R/B 4.1 20:05:34 10° NNW 20:09:43 28° N 20:09:43 28° N
